MST,Max TemperatureF,Mean TemperatureF,Min TemperatureF,Max Dew PointF,MeanDew PointF,Min DewpointF,Max Humidity, Mean Humidity, Min Humidity, Max Sea Level PressureIn, Mean Sea Level PressureIn, Min Sea Level PressureIn, Max VisibilityMiles, Mean VisibilityMiles, Min VisibilityMiles, Max Wind SpeedMPH, Mean Wind SpeedMPH, Max Gust SpeedMPH,PrecipitationIn, CloudCover, Events, WindDirDegrees
2012-12-1,55,43,30,30,26,22,78,53,28,29.94,29.88,29.75,10,10,10,30,6,33,0.00,1,,241
2012-12-2,60,44,27,34,26,23,78,52,25,29.85,29.66,29.50,10,10,10,29,9,37,0.01,2,Rain,224
2012-12-3,46,37,28,26,12,6,57,39,20,30.23,30.03,29.70,10,10,9,36,17,44,0.00,0,Snow,289
2012-12-4,45,34,23,26,16,11,60,44,28,30.29,30.21,30.06,10,10,10,17,6,18,0.00,0,,196
2012-12-5,56,41,26,31,25,20,81,58,35,30.05,29.91,29.81,10,10,10,25,9,31,0.00,0,,320
2012-12-6,46,35,23,22,17,13,68,50,31,29.99,29.89,29.80,10,10,10,29,7,33,0.00,0,,272
2012-12-7,38,28,18,21,14,6,84,58,32,29.99,29.91,29.79,10,10,10,15,6,20,0.00,2,,281
2012-12-8,30,22,14,16,10,-4,80,52,24,30.15,29.85,29.63,10,7,1,40,14,51,0.02,6,Snow,340
2012-12-9,19,12,5,9,5,-2,80,66,51,30.42,30.24,30.03,10,8,2,21,6,26,0.01,3,Snow,126
2012-12-10,30,19,7,14,8,0,80,60,39,30.10,30.05,29.98,10,10,10,21,8,24,0.00,1,,273
2012-12-11,34,20,5,16,11,2,88,69,49,30.07,29.91,29.65,10,10,10,14,5,17,0.00,0,,257
2012-12-12,47,32,17,21,15,11,80,54,28,29.89,29.75,29.62,10,10,10,26,10,33,0.00,0,,266
2012-12-13,39,28,17,18,14,10,74,57,40,30.01,29.93,29.83,10,10,10,10,4,13,0.00,0,,6
2012-12-14,37,27,17,18,16,12,80,62,44,29.87,29.74,29.63,10,10,10,13,4,14,0.00,2,,333
2012-12-15,35,27,19,22,18,11,84,70,56,29.81,29.75,29.69,10,10,10,13,4,14,0.00,3,,3
2012-12-16,38,29,19,11,6,-1,62,41,20,29.83,29.73,29.60,10,10,10,20,10,23,0.00,1,,263
2012-12-17,42,28,13,21,7,0,59,45,31,29.68,29.61,29.49,10,10,10,21,7,28,0.00,1,,259
2012-12-18,32,21,10,0,-5,-11,53,35,16,29.89,29.80,29.66,10,10,10,24,14,30,0.00,0,,297
2012-12-19,28,17,6,-6,-9,-15,55,38,21,30.28,30.10,29.87,10,10,10,30,15,37,0.00,0,Snow,307
2012-12-20,32,18,4,2,-4,-12,58,43,28,30.39,30.32,30.25,10,10,10,22,6,26,0.00,0,,185
2012-12-21,32,18,3,3,-1,-3,76,53,29,30.36,30.26,30.17,10,10,10,12,5,13,0.00,0,,326
2012-12-22,32,18,4,5,1,-3,69,49,29,30.30,30.11,29.93,10,10,10,15,4,16,0.00,0,,310
2012-12-23,42,27,12,13,7,2,59,39,18,30.08,29.97,29.82,10,10,10,14,6,18,0.00,0,,267
2012-12-24,31,20,9,10,6,2,84,62,39,30.20,29.92,29.81,10,7,1,18,7,23,0.11,3,Snow,357
2012-12-25,12,5,-2,6,2,-5,88,81,73,30.39,30.22,30.07,10,6,2,9,4,10,0.05,4,Snow,75
2012-12-26,17,11,5,12,9,1,88,81,73,30.11,29.74,29.59,10,4,0,8,2,8,0.16,8,Snow,251
2012-12-27,27,15,3,18,12,4,88,74,60,30.09,29.85,29.65,10,5,1,13,5,15,0.05,7,Snow,262
2012-12-28,13,4,-5,7,0,-5,91,79,67,30.34,30.19,29.90,10,10,2,12,3,14,0.00,1,,273
2012-12-29,11,1,-9,3,-7,-11,95,84,73,30.42,30.17,29.94,10,4,0,9,2,10,0.00,2,Fog,288
2012-12-30,7,-2,-11,-2,-8,-15,83,79,75,30.37,30.21,29.93,10,8,2,9,3,10,0.00,0,,256
2012-12-31,2,-5,-12,-2,-10,-17,91,80,69,30.39,30.21,29.96,10,7,0,13,4,13,0.00,1,,273